Yiewsley, United Kingdom

1:07 PM BST on August 17, 2017 (GMT +0100)
Yiewsley

Weather History for 03772 - July, 2013

Change the Weather History Date:

Friday, July 26, 2013

  Actual Average Record
Temperature  
Mean Temperature 68 °F -  
Max Temperature 80 °F 72 °F - ()
Min Temperature 57 °F 56 °F - ()
Cooling Degree Days 4    
Growing Degree Days 18 (Base 50)    
Moisture  
Dew Point 55 °F    
Average Humidity 63    
Maximum Humidity 94    
Minimum Humidity 29    
Precipitation  
Precipitation 0.00 in - - ()
Sea Level Pressure  
Sea Level Pressure 29.90 in    
Wind  
Wind Speed 6 mph ()    
Max Wind Speed 12 mph    
Max Gust Speed 22 mph    
Visibility 8.4 miles    
Events      
T = Trace of Precipitation, MM = Missing Value Source: Averaged Metar Reports

Daily Weather History Graph

Daily Weather History Graph

Search for Another Location

Airport or City:

Trip Planner

Search our weather history database for the weather conditions in past years. The results will help you decide how hot, cold, wet, or windy it might be!

Date:

Astronomy

Jul. 26, 2013 Rise Set
Actual Time 5:16 AM BST 8:58 PM BST
Civil Twilight 4:34 AM BST 9:40 PM BST
Nautical Twilight 3:37 AM BST 10:37 PM BST
Astronomical Twilight 2:05 AM BST 12:06 AM BST
Moon 10:22 PM BST (7/26) 10:15 AM BST (7/26)
Length of Visible Light 17h 05m
Length of Day
15h 41m
Waning Gibbous, 82% of the Moon is Illuminated
Jul 26
Waning Gibbous
Jul 29
Last Quarter
Aug 6
New
Aug 14
First Quarter
Aug 21
Full

Hourly Weather History & Observations

Time (BST) Temp. Heat Index Dew Point Humidity Pressure Visibility Wind Dir Wind Speed Gust Speed Precip Events Conditions
12:20 AM 60.8 °F - 55.4 °F 82% 29.95 in - WSW 5.8 mph - N/A   Clear
12:50 AM 62 °F - 55 °F 70% 29.93 in 15 mi SW 4.6 mph - -   Scattered Clouds
12:50 AM 59.0 °F - 55.4 °F 88% 29.92 in - SSW 4.6 mph - N/A   Clear
1:20 AM 60.8 °F - 55.4 °F 82% 29.92 in - SW 5.8 mph - N/A   Clear
1:50 AM 60.8 °F - 55.4 °F 82% 29.92 in - SSW 6.9 mph - N/A   Clear
2:20 AM 60.8 °F - 55.4 °F 82% 29.92 in 6.2 mi SW 5.8 mph - N/A   Unknown
2:50 AM 57.2 °F - 55.4 °F 94% 29.92 in 6.2 mi SW 8.1 mph - N/A   Unknown
3:20 AM 59.0 °F - 57.2 °F 94% 29.92 in 6.2 mi SSW 5.8 mph - N/A   Unknown
3:50 AM 60 °F - 55 °F 78% 29.92 in 14 mi SSW 5.8 mph - -   Partly Cloudy
3:50 AM 57.2 °F - 55.4 °F 94% 29.92 in - SW 8.1 mph - N/A   Clear
4:20 AM 57.2 °F - 55.4 °F 94% 29.92 in - SW 6.9 mph - N/A   Clear
4:50 AM 55.4 °F - 53.6 °F 94% 29.92 in - West 4.6 mph - N/A   Clear
5:20 AM 57.2 °F - 55.4 °F 94% 29.92 in - Variable 3.5 mph - N/A   Clear
5:50 AM 57.2 °F - 55.4 °F 94% 29.92 in - South 4.6 mph - N/A   Clear
6:20 AM 59.0 °F - 57.2 °F 94% 29.92 in - WSW 5.8 mph - N/A   Clear
6:50 AM 61 °F - 56 °F 78% 29.93 in 7 mi West 4.6 mph - -  
6:50 AM 60.8 °F - 57.2 °F 88% 29.92 in - West 4.6 mph - N/A   Clear
7:20 AM 60.8 °F - 57.2 °F 88% 29.92 in - SSW 5.8 mph - N/A   Clear
7:50 AM 62.6 °F - 57.2 °F 82% 29.92 in - Variable 5.8 mph - N/A   Clear
8:20 AM 64.4 °F - 59.0 °F 83% 29.92 in - SW 5.8 mph - N/A   Clear
8:50 AM 64.4 °F - 59.0 °F 83% 29.92 in - Variable 3.5 mph - N/A   Clear
9:20 AM 68.0 °F - 57.2 °F 68% 29.92 in - Variable 5.8 mph - N/A   Clear
9:50 AM 68 °F - 55 °F 53% 29.91 in 9 mi West 3.5 mph - -   Mostly Cloudy
9:50 AM 68.0 °F - 57.2 °F 68% 29.92 in - West 4.6 mph - N/A   Clear
10:20 AM 69.8 °F - 57.2 °F 64% 29.92 in - Variable 4.6 mph - N/A   Clear
10:50 AM 71.6 °F - 53.6 °F 53% 29.92 in 6.2 mi SW 5.8 mph - N/A   Scattered Clouds
11:20 AM 71.6 °F - 53.6 °F 53% 29.92 in 6.2 mi South 5.8 mph - N/A   Partly Cloudy
11:50 AM 71.6 °F - 53.6 °F 53% 29.92 in 6.2 mi Variable 5.8 mph - N/A   Mostly Cloudy
12:20 PM 75.2 °F - 51.8 °F 44% 29.92 in 6.2 mi SW 6.9 mph - N/A   Mostly Cloudy
12:50 PM 76 °F - 50 °F 29% 29.90 in 14 mi South 4.6 mph - -   Mostly Cloudy
12:50 PM 75.2 °F - 51.8 °F 44% 29.89 in 6.2 mi Variable 5.8 mph - N/A   Mostly Cloudy
1:20 PM 77.0 °F - 53.6 °F 44% 29.89 in 6.2 mi Variable 5.8 mph - N/A   Scattered Clouds
1:50 PM 78.8 °F - 55.4 °F 44% 29.89 in 6.2 mi WSW 10.4 mph - N/A   Scattered Clouds
2:20 PM 77.0 °F - 55.4 °F 47% 29.89 in 6.2 mi South 5.8 mph - N/A   Scattered Clouds
2:50 PM 77.0 °F - 55.4 °F 47% 29.89 in 6.2 mi Variable 6.9 mph - N/A   Partly Cloudy
3:20 PM 78.8 °F - 55.4 °F 44% 29.89 in - West 5.8 mph - N/A   Clear
3:50 PM 77 °F - 55 °F 35% 29.88 in 12 mi South 4.6 mph - -   Partly Cloudy
3:50 PM 77.0 °F - 55.4 °F 47% 29.86 in 6.2 mi SSW 5.8 mph - N/A   Partly Cloudy
4:20 PM 78.8 °F - 55.4 °F 44% 29.86 in - Variable 5.8 mph - N/A   Clear
4:50 PM 77.0 °F - 55.4 °F 47% 29.86 in - SW 6.9 mph - N/A   Clear
5:20 PM 80.6 °F 80.5 °F 55.4 °F 42% 29.86 in - SSW 9.2 mph - N/A   Clear
5:50 PM 77.0 °F - 55.4 °F 47% 29.86 in - SSW 10.4 mph 21.9 mph N/A   Clear
6:20 PM 78.8 °F - 53.6 °F 42% 29.86 in - SW 6.9 mph - N/A   Clear
6:50 PM 78 °F - 53 °F 31% 29.86 in 14 mi WSW 10.4 mph - -  
6:50 PM 77.0 °F - 53.6 °F 44% 29.86 in - WSW 9.2 mph - N/A   Clear
7:20 PM 77.0 °F - 53.6 °F 44% 29.86 in - WSW 10.4 mph - N/A   Clear
7:50 PM 75.2 °F - 53.6 °F 47% 29.86 in - WSW 9.2 mph - N/A   Clear
8:20 PM 75.2 °F - 51.8 °F 44% 29.86 in - SW 11.5 mph - N/A   Clear
8:50 PM 71.6 °F - 51.8 °F 50% 29.86 in - WSW 9.2 mph - N/A   Clear
9:20 PM 71.6 °F - 51.8 °F 50% 29.86 in - SW 8.1 mph - N/A   Clear
9:50 PM 71 °F - 50 °F 37% 29.88 in 13 mi SW 9.2 mph - -  
9:50 PM 71.6 °F - 51.8 °F 50% 29.89 in - SW 10.4 mph - N/A   Clear
10:20 PM 68.0 °F - 50.0 °F 52% 29.89 in - SW 9.2 mph - N/A   Clear
10:50 PM 66.2 °F - 50.0 °F 56% 29.89 in - SW 8.1 mph - N/A   Clear
11:20 PM 64.4 °F - 51.8 °F 64% 29.86 in - WSW 6.9 mph - N/A   Clear
11:50 PM 62.6 °F - 51.8 °F 68% 29.86 in 6.2 mi SW 5.8 mph - N/A   Partly Cloudy